Regional Weather Roundup
Issued by NWS Cleveland, OH

Home | Current Version | Previous Version | Text Only | Print | Product List | Glossary Off
Versions: 1 2 3 4 5 6 7 8 9 10 11 12 13 14 15 16 17 18 19 20 21 22 23 24 25 26 27 28 29 30 31 32 33 34 35 36 37 38 39 40 41 42 43 44 45 46 47 48 49 50

000
ASUS41 KCLE 251902
RWRCLE
OHIO REGIONAL WEATHER ROUNDUP
NATIONAL WEATHER SERVICE CLEVELAND, OH
300 PM EDT SAT MAR 25 2017

NOTE: "FAIR" INDICATES FEW OR NO CLOUDS BELOW 12,000 FEET WITH NO
SIGNIFICANT WEATHER AND/OR OBSTRUCTIONS TO VISIBILITY.

OHZ001>008-015>018-024>027-034-035-043-044-252000-
   NORTHWEST OHIO

CITY           SKY/WX    TMP DP  RH WIND       PRES   REMARKS
DEFIANCE       PTSUNNY   53  44  71 E16       30.11S
FINDLAY        CLOUDY    59  45  59 NE16      30.10F
TOLEDO EXPRESS CLOUDY    44  38  79 E22G31    30.15F
TOLEDO EXEC    CLOUDY    42  38  85 NE17      30.18F
LIMA           CLOUDY    71  53  52 SW12      30.08F
$$

OHZ009>014-019>023-028>033-038-089-252000-
   NORTHEAST OHIO

CITY           SKY/WX    TMP DP  RH WIND       PRES   REMARKS
CLE-HOPKINS    CLOUDY    54  41  61 NE9       30.19F
CLE-LAKEFRONT  CLOUDY    41  38  89 NE16      30.17F
CUY CO. ARPT   CLOUDY    55  45  67 E12       30.18F
LORAIN-ELYRIA  MOSUNNY   50  42  74 E10       30.16F
ASHTABULA      CLOUDY    48  41  76 VRB5      30.21F
AKRON-CANTON   CLOUDY    73  52  47 W10       30.14F
WOOSTER        MOSUNNY   70  51  51 SW3       30.13F
MANSFIELD      PTSUNNY   71  52  50 W9        30.12F
YOUNGSTOWN     CLOUDY    60  47  61 NE10      30.17S
$$

OHZ042-051>053-060>062-070>072-077>081-252000-
  SOUTHWEST OHIO

CITY           SKY/WX    TMP DP  RH WIND       PRES   REMARKS
CINC-COVINGTON PTSUNNY   76  52  43 S17G24    30.05F
CINC-LUNKEN    CLOUDY    76  55  48 S18G24    30.06F
HAMILTON       MOSUNNY   77  52  41 S9        30.06F
DAYTON         CLOUDY    72  51  47 S10       30.08F
WRIGHT-PAT AFB NOT AVBL
DAYTON GENERAL PTSUNNY   75  51  43 S15       30.07F
WILMINGTON     CLOUDY    70  52  52 S17       30.09F
$$

OHZ036-037-039>041-045>050-054>059-063>069-073>076-082>088-252000-
  CENTRAL AND SOUTHEAST OHIO

CITY           SKY/WX    TMP DP  RH WIND       PRES   REMARKS
COLUMBUS       CLOUDY    74  52  46 SW7       30.11F
OSU AIRPORT    PTSUNNY   72  53  51 S8        30.10F
BOLTON FIELD   SUNNY     72  54  53 S6        30.12F
RICKENBACK AFB CLOUDY    72  52  48 S12       30.11F
NEWARK         MOSUNNY   72  52  49 W10       30.11F
MARION         PTSUNNY   73  51  46 SW13G20   30.10F
LANCASTER      CLOUDY    74  51  44 S10       30.12F
ZANESVILLE     PTSUNNY   73  51  46 VRB5      30.12F
NEW PHILLY     NOT AVBL
$$




USA.gov is the U.S. government's official web portal to all federal, state and local government web resources and services.